Temperature
15 15 16 16 19 20 21 21 21 20 20 19 19 20 21 22 21 20 14 14 14 14 14 15 15 15 15 15 15 15 15 15 15 15 15 15 15 15 15 15 15 15 15 15 15 15 15 15 15
14 15 15 17 19 21 21 21 20 20 19 17 17 18 19 18 16 14 14 14 14 14 14 15 15 15 15 15 15 15 15 15 15 15 15 15 15 15 15 15 15 15 15 15 15 15 15 15 15
14 14 15 18 19 21 21 20 20 18 16 17 17 17 18 16 14 13 14 14 14 14 14 15 15 15 15 15 15 15 15 15 15 15 15 15 15 15 15 15 15 15 15 15 15 15 15 15 15
13 14 16 18 19 19 20 19 18 17 16 16 17 17 15 13 13 13 14 14 14 14 14 14 15 15 15 15 15 15 15 15 15 15 15 15 15 15 15 15 15 14 14 14 14 14 14 14 14
13 15 17 17 18 19 18 18 17 18 18 16 16 17 15 13 13 13 14 14 14 14 14 14 14 15 15 15 15 15 15 15 15 15 15 15 15 15 14 14 14 14 14 14 14 14 14 14 14
13 15 17 18 18 18 18 16 17 18 17 16 16 16 14 13 13 13 13 13 13 14 14 14 14 14 14 14 15 15 15 15 15 15 15 14 14 14 14 14 14 14 14 14 14 14 14 14 14
14 16 17 17 18 17 17 16 17 17 17 16 15 16 14 13 13 13 13 13 13 14 14 14 14 14 14 14 14 14 14 14 14 14 14 14 14 14 14 14 14 14 14 14 14 14 14 14 13
13 15 16 16 17 17 16 15 15 16 16 14 14 16 15 13 13 13 13 13 13 13 14 14 14 14 14 14 14 14 14 14 14 14 14 14 14 14 14 14 14 14 14 14 14 14 13 13 13
12 15 16 16 16 17 15 15 14 13 14 13 12 13 13 13 13 13 13 13 13 13 13 13 14 14 14 14 14 14 14 14 14 13 13 13 13 13 13 13 13 13 13 13 13 13 13 13 13
12 14 16 16 16 16 15 15 14 14 14 13 12 12 12 13 13 13 13 13 13 13 13 13 13 13 13 13 13 13 13 13 13 13 13 13 13 13 13 13 13 13 13 13 13 13 13 13 13
13 14 14 14 13 14 14 14 13 15 15 15 14 12 12 12 12 12 12 12 13 13 13 13 13 13 13 13 13 13 13 13 13 13 13 13 13 13 13 12 12 13 13 13 13 13 12 12 12
13 13 12 12 11 12 13 13 13 14 14 13 13 13 12 12 12 12 12 12 13 13 13 13 13 13 13 13 13 13 13 13 13 13 12 12 12 12 12 12 12 12 12 12 12 12 12 12 12
12 12 11 11 11 12 12 13 13 13 12 12 12 12 12 12 12 12 12 12 12 12 12 12 12 12 12 13 12 12 12 12 12 12 12 12 12 12 12 12 12 12 12 12 12 12 12 12 11
12 12 11 11 11 11 12 12 12 12 11 12 12 12 12 11 12 11 12 12 12 12 12 12 12 12 12 12 12 12 12 12 12 12 12 12 12 12 12 12 11 11 11 11 11 11 11 11 11
11 12 12 12 12 12 12 13 13 11 11 11 11 11 11 11 11 11 12 12 12 12 12 12 12 12 12 12 12 12 12 12 12 11 11 11 11 11 11 11 11 11 11 11 11 11 11 11 11
12 13 13 12 12 12 13 14 13 11 11 11 11 10 11 11 11 11 11 11 11 11 11 12 12 12 11 11 11 11 11 11 11 11 11 11 11 11 11 11 11 11 11 11 11 10 10 10 10
12 13 13 12 12 12 13 14 13 10 11 11 11 10 10 11 11 11 11 11 11 11 11 11 11 11 11 11 11 11 11 11 11 11 11 11 11 10 10 10 10 10 10 10 10 10 10 10 10
13 13 13 13 12 12 13 13 12 11 11 11 11 11 10 10 11 11 11 11 11 11 11 11 11 11 11 11 11 11 10 10 10 10 10 10 10 10 10 10 10 10 10 10 10 10 10 9 9
13 13 13 12 11 12 13 13 13 12 11 11 11 11 10 10 10 10 11 11 11 11 11 11 11 10 10 10 10 10 10 10 10 10 10 10 10 10 10 9 9 9 9 9 9 9 9 9 9
12 13 12 12 11 12 12 13 13 12 11 11 11 11 11 10 10 10 10 10 10 10 10 10 10 10 10 10 10 10 10 10 10 9 9 9 9 9 9 9 9 9 9 9 9 9 9 9 9
12 12 12 12 11 12 12 14 13 12 11 10 10 10 10 10 10 10 10 10 10 10 10 10 10 10 10 10 10 9 9 9 9 9 9 9 9 9 9 9 9 9 8 8 8 8 8 8 8
12 10 11 11 13 13 13 14 14 13 12 12 11 10 10 10 10 10 10 10 10 10 10 10 10 10 10 9 9 9 9 9 9 9 9 9 9 9 9 9 9 8 8 8 8 8 8 8 7
10 9 10 11 12 13 13 13 15 12 13 13 11 10 10 9 9 10 10 10 10 10 10 10 10 10 9 9 9 9 9 9 9 9 9 9 8 8 8 8 8 8 8 8 8 7 7 7 7
9 10 11 11 13 12 12 13 14 14 13 13 12 10 9 9 9 9 10 10 10 10 10 10 10 9 9 9 9 9 9 9 8 8 8 8 8 8 8 8 8 8 8 7 7 7 7 7 6
10 12 12 12 12 13 11 12 14 13 12 12 11 10 9 9 9 9 9 9 9 9 10 9 9 9 9 9 9 9 8 8 8 8 8 8 8 8 8 7 7 7 7 7 7 7 6 6 6
10 11 12 13 14 14 11 12 14 11 10 9 9 9 8 8 8 9 9 9 9 9 9 9 9 9 9 9 8 8 8 8 8 8 7 7 7 7 7 7 7 7 7 7 6 6 6 6 5
10 11 10 12 11 12 14 13 13 11 10 10 9 9 8 8 8 9 9 9 9 9 9 9 9 9 9 8 8 8 8 8 7 7 7 7 7 7 7 7 6 6 6 6 6 6 5 5 5
9 10 10 11 12 13 14 14 14 12 11 10 10 9 8 8 8 8 9 9 9 9 9 8 8 8 8 8 8 8 7 7 7 7 7 7 6 6 6 6 6 6 6 6 5 5 5 5 5
9 9 10 11 11 13 14 15 13 12 11 11 10 9 9 8 8 8 8 8 8 8 8 8 8 8 8 8 8 7 7 7 7 6 6 6 6 6 6 6 6 6 5 5 5 5 5 4 4
9 9 10 11 11 11 12 14 11 10 10 10 10 9 8 8 8 8 8 8 8 8 8 8 8 8 7 7 7 7 7 6 6 6 6 6 6 6 6 5 5 5 5 5 5 4 4 4 4
Wind_Speed
7 5 3 2 5 7 13 9 5 6 6 4 2 4 5 4 2 2 5 6 8 8 9 11 10 10 10 9 9 9 9 9 8 8 8 8 8 8 8 8 8 9 9 8 8 8 8 7 6
5 3 2 3 7 12 11 10 9 6 4 4 3 3 4 3 3 5 5 6 7 8 9 10 11 10 10 10 10 9 9 9 8 8 8 8 8 8 8 8 8 8 8 8 8 8 7 7 6
3 2 3 5 9 13 10 7 7 4 5 4 3 2 1 3 4 4 5 7 7 8 8 11 11 11 10 10 10 9 9 8 8 8 8 7 8 8 8 8 8 8 8 8 8 8 8 7 6
2 2 3 7 14 12 7 6 6 6 5 3 4 4 2 2 2 4 6 7 8 8 9 11 11 11 10 10 10 9 8 8 8 8 7 8 8 8 8 8 8 8 8 8 8 7 7 7 7
2 3 7 10 14 10 7 5 7 7 6 5 4 4 3 2 3 6 7 7 8 8 8 11 11 11 10 10 9 9 9 8 8 8 7 8 8 8 8 8 8 8 7 7 7 7 7 7 6
4 4 8 13 13 9 7 6 8 8 5 4 4 4 4 4 5 6 6 6 7 7 8 10 12 11 10 10 9 9 9 9 9 8 8 8 9 9 9 8 8 8 7 7 7 7 7 7 7
5 6 10 12 11 10 8 6 8 7 7 5 4 5 4 6 5 6 6 6 7 7 7 8 10 10 11 10 10 10 9 9 9 9 9 9 9 9 9 9 8 8 8 7 7 7 7 7 7
3 4 9 10 11 10 7 5 5 6 5 2 4 5 5 7 7 6 6 6 6 6 7 7 7 8 8 9 10 10 10 9 9 9 8 8 8 8 8 9 9 8 8 7 7 7 6 6 6
3 6 10 10 10 8 7 5 3 2 4 3 3 2 1 8 9 8 7 6 6 6 5 6 6 7 7 7 8 8 9 8 7 7 7 5 5 5 5 8 8 8 8 7 7 7 6 5 4
5 8 10 6 6 6 7 7 5 5 6 5 4 2 5 9 10 10 9 8 7 7 6 5 5 6 6 6 6 6 6 6 5 5 5 4 4 4 4 6 7 7 7 6 7 6 5 4 4
5 7 5 4 4 5 7 6 5 6 7 6 7 8 8 10 10 10 9 8 7 7 6 5 5 5 5 4 5 4 4 4 4 5 4 3 3 3 3 3 4 4 5 5 5 4 5 5 5
4 4 4 3 3 4 6 6 5 7 4 3 4 8 10 11 11 10 9 8 7 7 6 5 5 4 4 4 4 4 4 3 4 4 4 3 3 3 3 3 3 4 4 4 4 4 5 5 5
4 3 2 2 3 3 4 5 4 4 3 1 4 8 9 10 10 9 8 8 8 7 6 5 5 4 4 4 3 3 3 3 4 3 3 3 2 2 3 3 3 4 4 4 4 4 5 4 5
3 3 1 1 2 2 4 3 3 3 2 4 6 7 8 8 8 7 8 8 8 7 6 5 5 4 4 3 3 3 3 3 3 3 3 3 3 2 2 3 3 4 4 4 4 4 4 4 4
2 3 2 1 2 2 3 3 5 2 5 5 5 6 6 7 7 8 8 8 7 7 6 5 5 4 4 4 3 3 3 3 3 3 3 3 3 2 2 2 3 4 4 4 4 4 3 3 3
3 5 4 0 1 1 6 6 3 3 6 6 6 6 6 5 6 6 6 6 6 6 6 5 4 5 4 3 3 3 2 2 2 2 3 3 3 2 2 2 3 3 3 3 3 3 3 3 3
3 5 5 2 1 1 4 5 1 2 4 5 5 6 6 5 5 5 5 5 6 6 6 6 5 5 4 3 3 3 2 2 2 2 2 2 3 3 2 2 3 3 3 3 3 3 3 3 3
5 5 4 3 1 1 3 3 1 2 4 5 5 5 5 5 5 5 5 5 5 5 6 5 5 4 4 3 3 2 2 1 1 1 2 2 2 2 2 2 2 2 2 3 3 3 3 3 3
5 5 3 1 2 1 3 3 3 3 4 5 5 5 5 5 4 4 5 5 5 5 5 5 5 5 4 3 2 1 1 0 1 1 1 1 1 1 1 1 1 2 2 2 3 2 2 2 3
3 4 1 1 3 1 1 3 3 3 5 5 6 6 6 5 4 4 5 5 6 6 5 5 5 4 4 3 2 1 1 0 1 0 0 1 1 1 1 1 1 1 1 1 2 2 2 2 2
0 3 2 1 2 1 1 3 3 2 3 3 4 5 5 5 5 5 5 6 6 5 5 5 5 5 4 4 3 2 2 1 1 1 1 1 2 1 1 1 1 1 1 1 2 2 2 2 2
0 1 1 1 2 1 1 3 4 4 4 4 4 5 5 5 5 5 6 6 6 5 5 5 5 5 4 4 4 4 3 2 2 2 2 2 2 2 2 2 2 1 1 1 2 2 2 2 2
0 1 0 1 1 1 1 3 3 3 4 5 4 4 4 4 5 5 6 5 5 4 4 4 5 4 4 4 5 4 4 3 2 2 3 3 2 2 3 3 2 2 2 2 2 2 2 2 3
1 1 1 1 1 3 2 4 3 3 4 4 4 4 4 4 4 4 5 5 4 4 4 5 5 5 4 5 5 5 5 4 4 4 3 3 2 2 3 3 3 3 2 2 3 3 3 3 4
1 1 0 1 2 3 0 4 5 1 2 3 3 4 4 5 5 5 6 6 5 5 5 5 5 4 4 4 4 4 5 5 5 5 4 4 3 3 3 3 4 3 3 3 3 4 4 4 5
1 2 1 2 3 2 1 5 2 1 1 2 2 3 4 5 5 6 6 6 5 5 4 4 4 3 3 3 3 3 4 4 3 4 4 4 4 3 4 4 4 5 4 4 4 4 4 4 5
1 1 2 0 1 3 4 4 4 1 1 2 3 5 5 6 6 6 6 5 5 4 3 3 3 3 2 2 2 2 3 4 4 4 4 4 4 3 4 4 4 5 5 5 4 4 5 5 5
2 1 2 2 2 3 4 4 3 3 4 5 5 6 6 6 6 6 5 5 4 3 3 3 2 1 1 1 1 2 2 3 3 3 4 4 4 4 4 4 5 5 5 5 5 5 5 6 6
2 2 2 1 2 3 4 2 0 3 4 6 6 6 6 7 6 5 5 4 4 3 3 2 2 1 0 0 1 2 2 3 3 3 4 4 4 4 4 4 5 5 5 5 6 6 6 7 7
2 3 4 3 3 3 4 4 2 2 3 4 5 5 6 6 6 5 5 5 4 3 2 2 1 0 1 1 2 2 2 3 3 4 4 4 4 4 4 5 5 5 6 6 6 7 7 7 8
Wind_Direction
317 316 292 236 215 224 231 217 211 193 191 186 183 208 207 193 196 112 101 130 134 138 141 140 130 124 116 111 108 105 103 100 95 91 86 82 78 76 73 69 65 62 59 55 52 49 47 46 46
315 306 242 218 225 226 224 214 205 195 172 153 167 188 181 165 71 100 124 132 137 138 142 138 129 125 117 110 106 104 101 98 95 91 88 83 79 77 72 69 65 62 57 53 50 46 43 41 41
290 290 227 209 225 232 224 199 201 168 158 177 168 183 183 137 121 118 121 140 141 138 139 130 129 125 118 112 107 104 103 100 95 91 87 82 79 75 71 69 65 61 56 51 47 44 41 38 34
235 198 214 226 224 227 236 197 181 168 177 188 178 158 142 82 101 117 130 144 141 137 137 131 129 125 119 113 108 104 102 100 96 91 87 82 76 74 70 68 63 59 54 49 44 40 37 35 31
212 207 208 224 228 222 229 215 187 193 190 182 189 171 152 115 103 122 135 143 140 135 133 134 129 124 119 114 109 105 99 96 94 91 87 81 76 72 67 64 61 57 51 46 41 36 33 29 26
186 210 218 224 221 218 217 208 195 208 198 194 190 171 151 136 136 134 137 139 135 130 130 134 129 124 121 115 110 103 97 92 89 87 85 80 76 73 68 62 59 55 49 46 40 34 30 26 24
208 208 224 225 221 217 205 196 208 205 204 200 192 176 163 163 147 141 139 134 131 127 126 129 137 131 120 112 107 102 96 91 87 85 84 83 79 74 68 62 57 53 47 43 39 34 32 28 24
235 217 221 221 220 217 185 185 219 214 201 162 200 197 182 172 152 145 138 132 128 128 128 130 132 136 134 122 108 103 97 93 89 84 81 85 85 79 70 63 56 51 46 42 39 35 30 26 24
210 222 224 218 217 210 181 191 192 230 173 198 230 266 170 146 153 153 148 139 134 129 132 138 136 132 134 127 120 114 105 95 94 89 85 88 80 75 72 57 54 50 45 42 38 34 30 21 34
201 220 226 226 226 217 201 206 188 190 203 216 214 204 158 160 167 168 168 161 155 150 142 139 137 136 130 127 126 117 108 99 87 83 84 76 73 65 61 73 58 51 43 43 37 29 24 3 11
200 226 231 241 249 231 206 202 192 202 219 224 212 186 170 176 179 179 177 171 164 158 148 139 135 134 129 125 119 111 103 98 88 75 72 74 72 64 56 53 52 42 33 29 26 18 18 12 10
203 229 240 238 250 224 211 195 201 222 247 276 223 180 176 183 187 186 178 174 165 159 153 144 141 134 125 121 114 109 100 89 78 70 56 58 58 51 49 44 36 30 23 17 15 10 15 13 13
217 215 253 260 247 220 201 207 213 237 271 219 159 169 179 188 193 190 180 175 169 163 157 150 148 141 133 122 119 113 99 89 84 71 55 45 49 49 43 41 34 28 21 15 9 8 11 11 11
204 203 226 294 232 194 192 219 203 226 174 149 158 173 181 185 187 183 183 183 175 168 161 155 153 144 135 126 112 109 99 96 82 69 54 44 42 42 36 41 33 26 17 10 4 9 8 8 9
184 184 177 307 263 199 196 225 220 201 161 165 172 175 180 186 186 189 187 185 179 169 160 156 151 146 140 125 108 98 92 91 77 63 49 42 34 29 33 36 32 22 11 6 6 9 8 14 12
190 198 196 234 302 229 208 223 206 176 172 181 183 179 182 188 198 196 189 185 177 166 159 152 150 146 140 131 121 102 91 86 71 58 45 36 32 24 30 31 30 20 13 9 10 4 4 10 4
193 204 202 198 337 224 215 231 230 187 186 192 191 186 183 188 200 198 190 186 176 170 163 157 153 149 141 137 127 111 94 92 73 55 42 30 28 25 32 32 28 25 20 17 12 10 3 3 360
199 201 203 203 353 190 206 243 251 195 194 198 195 188 186 193 200 193 186 182 173 168 161 155 148 150 148 148 141 134 118 141 103 58 38 24 20 20 24 32 31 26 24 18 13 13 10 1 348
207 201 211 267 343 227 215 250 261 210 201 203 201 197 196 199 188 175 172 174 170 164 161 159 157 159 162 165 177 175 174 173 144 74 19 6 359 3 7 2 12 16 19 13 6 1 1 7 349
187 192 205 354 8 316 234 271 262 227 216 213 207 205 201 189 173 171 169 171 177 174 173 168 169 171 177 174 169 161 133 31 299 226 349 313 303 305 309 317 331 355 353 360 2 354 332 346 1
145 213 224 302 337 35 281 247 218 217 212 215 218 215 211 202 193 180 177 182 185 185 184 179 179 182 183 175 163 159 168 197 239 243 254 265 272 269 263 269 286 308 323 331 337 334 329 325 346
276 351 242 262 211 212 283 244 214 207 214 207 212 213 214 204 197 186 181 182 187 190 186 184 182 185 187 187 193 198 209 220 245 260 266 272 269 267 255 256 260 271 274 286 294 302 295 294 299
85 356 252 234 208 234 230 237 237 196 228 223 212 210 211 199 189 181 181 181 181 178 179 181 178 183 189 193 202 207 221 234 248 258 262 269 261 257 252 253 255 255 255 262 277 279 271 267 273
159 173 141 187 213 240 237 235 244 203 225 212 200 199 189 176 170 163 160 161 159 162 169 171 174 180 186 194 206 215 223 231 239 253 260 262 259 255 249 248 247 248 247 248 254 258 255 254 257
286 194 99 201 233 250 118 246 252 220 238 223 201 187 175 164 160 155 154 155 155 163 166 166 173 179 186 196 210 221 228 235 239 250 258 261 258 255 254 247 245 245 242 242 245 248 252 250 251
229 279 246 244 252 276 227 248 269 52 298 251 214 177 163 161 158 153 152 150 151 158 161 163 172 178 183 199 219 227 227 233 242 247 254 259 258 261 263 254 250 250 246 241 239 247 249 250 248
179 187 338 292 290 269 251 271 275 185 216 186 174 167 166 162 159 154 149 145 145 148 149 157 166 171 178 194 214 221 221 228 237 244 250 256 256 258 258 255 252 249 245 244 242 246 247 248 249
343 160 184 207 246 267 272 262 265 220 203 189 185 179 172 165 160 156 151 146 141 137 135 134 139 156 173 197 224 227 226 235 242 246 251 257 256 253 256 258 255 253 248 243 241 246 247 247 249
172 185 205 196 269 264 276 264 353 243 215 202 196 189 181 174 171 166 159 152 144 137 133 129 125 134 157 242 260 228 234 237 242 246 255 258 257 255 257 260 257 254 251 246 245 246 248 248 252
249 226 206 236 235 239 269 277 91 261 250 223 206 195 191 184 180 175 167 160 153 151 152 155 158 200 278 288 281 259 244 242 247 256 264 265 266 268 264 261 259 259 257 253 251 253 251 251 253
Height
1524 1525 1526 1528 1527 1521 1514 1513 1515 1518 1519 1522 1523 1523 1520 1521 1523 1529 1531 1530 1532 1534 1536 1538 1539 1540 1541 1542 1542 1543 1543 1543 1542 1542 1542 1542 1542 1541 1541 1540 1540 1539 1539 1538 1538 1537 1536 1536 1536
1524 1525 1528 1528 1522 1517 1513 1512 1516 1518 1521 1523 1524 1524 1523 1524 1527 1528 1528 1529 1532 1534 1536 1538 1539 1540 1541 1542 1542 1542 1542 1542 1542 1542 1542 1542 1541 1541 1541 1540 1539 1539 1538 1538 1537 1536 1536 1536 1535
1523 1525 1527 1523 1518 1511 1509 1514 1516 1521 1523 1523 1524 1524 1525 1526 1527 1527 1528 1529 1532 1534 1536 1537 1539 1540 1541 1542 1542 1542 1542 1542 1542 1542 1542 1542 1541 1541 1540 1540 1539 1538 1538 1537 1536 1536 1535 1535 1534
1524 1526 1526 1521 1514 1512 1512 1514 1518 1521 1523 1524 1523 1524 1525 1526 1527 1527 1528 1530 1532 1534 1536 1537 1539 1540 1541 1541 1542 1542 1542 1542 1542 1542 1542 1541 1541 1541 1540 1539 1539 1538 1537 1537 1536 1535 1535 1534 1534
1523 1524 1521 1517 1512 1513 1515 1517 1519 1519 1520 1522 1523 1523 1525 1526 1525 1526 1528 1530 1532 1534 1536 1537 1539 1540 1541 1541 1542 1542 1542 1542 1542 1542 1542 1541 1541 1540 1540 1539 1538 1537 1537 1536 1535 1535 1534 1533 1533
1523 1521 1516 1512 1510 1513 1517 1519 1519 1519 1520 1522 1523 1523 1524 1525 1525 1527 1528 1530 1532 1534 1535 1537 1538 1539 1541 1541 1541 1542 1542 1542 1542 1542 1542 1541 1541 1540 1539 1539 1538 1537 1536 1536 1535 1534 1533 1533 1532
1522 1518 1512 1510 1510 1513 1516 1519 1519 1518 1519 1521 1522 1523 1523 1525 1525 1526 1528 1530 1532 1533 1535 1537 1538 1539 1540 1541 1541 1542 1542 1542 1542 1542 1541 1541 1540 1540 1539 1538 1538 1537 1536 1535 1534 1533 1533 1532 1531
1520 1518 1514 1511 1510 1511 1516 1518 1518 1519 1519 1521 1522 1522 1522 1523 1524 1526 1528 1529 1531 1533 1535 1536 1537 1539 1540 1540 1541 1541 1542 1542 1542 1541 1541 1541 1540 1540 1539 1538 1537 1536 1535 1535 1534 1533 1532 1531 1531
1519 1519 1511 1510 1510 1510 1515 1517 1518 1519 1519 1520 1520 1521 1521 1521 1523 1525 1527 1529 1531 1532 1534 1535 1537 1538 1539 1540 1540 1541 1541 1541 1541 1541 1541 1540 1540 1539 1539 1538 1537 1536 1535 1534 1533 1532 1531 1531 1530
1519 1514 1509 1511 1511 1511 1514 1515 1517 1518 1518 1518 1519 1519 1519 1520 1522 1524 1526 1528 1530 1532 1533 1535 1536 1537 1538 1539 1540 1540 1541 1541 1541 1541 1540 1540 1539 1539 1538 1537 1536 1535 1535 1534 1533 1532 1531 1530 1529
1516 1513 1512 1513 1513 1513 1513 1514 1516 1515 1515 1515 1516 1517 1518 1520 1521 1523 1525 1527 1529 1531 1532 1534 1535 1536 1537 1538 1539 1539 1540 1540 1540 1540 1540 1539 1539 1538 1537 1537 1536 1535 1534 1533 1532 1531 1530 1529 1528
1515 1514 1514 1514 1514 1513 1512 1513 1514 1514 1514 1514 1515 1515 1516 1518 1520 1522 1524 1526 1528 1529 1531 1533 1534 1535 1536 1537 1538 1538 1539 1539 1539 1539 1539 1539 1538 1538 1537 1536 1535 1534 1533 1532 1531 1530 1529 1528 1527
1514 1514 1514 1513 1513 1513 1512 1512 1512 1513 1513 1513 1513 1514 1516 1517 1519 1521 1523 1524 1526 1528 1530 1532 1533 1535 1536 1536 1537 1538 1538 1538 1538 1538 1538 1538 1538 1537 1536 1535 1534 1533 1532 1531 1530 1529 1528 1527 1526
1514 1514 1514 1513 1513 1512 1512 1512 1512 1511 1511 1512 1513 1514 1515 1517 1518 1519 1521 1523 1525 1527 1529 1531 1532 1533 1534 1535 1536 1537 1537 1537 1538 1537 1537 1537 1537 1536 1535 1534 1533 1533 1532 1531 1530 1529 1527 1526 1525
1515 1514 1513 1513 1512 1511 1511 1510 1509 1509 1510 1511 1513 1513 1514 1516 1517 1518 1519 1522 1524 1525 1527 1529 1531 1532 1533 1534 1535 1535 1536 1536 1536 1536 1536 1536 1535 1535 1534 1534 1533 1532 1531 1530 1529 1528 1526 1525 1524
1513 1511 1510 1511 1511 1510 1511 1506 1508 1509 1510 1511 1512 1513 1513 1514 1516 1518 1519 1521 1522 1524 1526 1528 1529 1531 1532 1533 1534 1534 1535 1535 1535 1535 1535 1535 1534 1534 1533 1532 1531 1531 1530 1529 1528 1527 1525 1524 1523
1509 1507 1506 1510 1511 1509 1508 1504 1507 1508 1509 1510 1511 1512 1512 1514 1515 1516 1517 1519 1521 1523 1525 1526 1528 1529 1530 1531 1532 1533 1533 1533 1534 1534 1533 1533 1533 1532 1532 1531 1530 1529 1528 1528 1527 1526 1524 1523 1522
1508 1504 1505 1506 1510 1509 1507 1505 1507 1508 1509 1509 1509 1510 1512 1512 1513 1514 1516 1517 1519 1521 1523 1524 1526 1528 1529 1530 1531 1531 1532 1532 1532 1532 1532 1532 1531 1531 1530 1530 1529 1528 1527 1526 1525 1524 1523 1522 1521
1507 1506 1505 1508 1511 1509 1506 1505 1505 1507 1508 1508 1508 1509 1510 1511 1513 1513 1515 1516 1518 1519 1521 1523 1525 1527 1528 1529 1529 1529 1530 1530 1530 1530 1530 1530 1530 1529 1529 1528 1527 1526 1526 1525 1524 1523 1522 1520 1519
1509 1507 1508 1510 1511 1510 1507 1505 1504 1505 1506 1506 1507 1508 1509 1510 1511 1512 1513 1514 1516 1518 1520 1522 1524 1525 1527 1527 1528 1528 1529 1529 1529 1528 1528 1528 1528 1527 1527 1526 1525 1524 1524 1523 1522 1521 1520 1519 1518
1510 1508 1508 1510 1511 1510 1508 1502 1502 1503 1505 1506 1506 1507 1508 1508 1509 1510 1511 1513 1515 1517 1518 1520 1522 1524 1525 1525 1526 1527 1527 1527 1527 1526 1526 1526 1526 1525 1525 1524 1523 1522 1521 1521 1520 1520 1519 1517 1516
1510 1513 1513 1512 1507 1506 1508 1502 1497 1500 1502 1503 1505 1505 1506 1506 1507 1508 1510 1512 1513 1515 1517 1519 1520 1522 1522 1523 1524 1525 1525 1525 1525 1524 1524 1524 1524 1523 1523 1522 1521 1520 1519 1519 1518 1517 1517 1516 1515
1514 1516 1514 1512 1509 1508 1507 1505 1494 1499 1498 1499 1502 1503 1504 1504 1506 1507 1508 1510 1512 1513 1515 1517 1518 1519 1520 1521 1522 1523 1523 1523 1523 1523 1522 1522 1521 1521 1520 1519 1519 1518 1517 1516 1516 1515 1514 1513 1512
1518 1515 1513 1511 1507 1509 1507 1504 1494 1493 1494 1496 1500 1501 1502 1503 1504 1505 1507 1508 1510 1512 1514 1515 1516 1517 1518 1519 1520 1520 1520 1520 1520 1520 1519 1519 1518 1518 1517 1516 1516 1515 1514 1514 1513 1512 1511 1511 1510
1517 1512 1510 1509 1508 1502 1511 1507 1495 1494 1497 1497 1499 1500 1501 1502 1503 1504 1506 1508 1509 1511 1512 1513 1514 1515 1516 1517 1517 1517 1517 1517 1517 1517 1516 1516 1515 1515 1514 1513 1512 1512 1511 1510 1510 1509 1508 1507 1506
1516 1513 1511 1509 1503 1499 1510 1502 1491 1497 1498 1499 1499 1499 1500 1501 1502 1504 1505 1507 1508 1510 1511 1511 1512 1513 1513 1514 1513 1513 1514 1513 1513 1513 1513 1512 1512 1511 1510 1510 1509 1508 1508 1507 1506 1505 1505 1504 1503
1515 1514 1516 1511 1511 1506 1495 1495 1491 1495 1496 1497 1498 1499 1499 1501 1502 1503 1504 1506 1507 1508 1509 1510 1510 1510 1511 1511 1511 1510 1510 1510 1510 1510 1509 1509 1508 1507 1507 1506 1505 1505 1504 1503 1502 1501 1501 1500 1499
1520 1517 1516 1512 1509 1500 1493 1491 1486 1489 1492 1495 1496 1498 1499 1500 1501 1502 1503 1505 1506 1507 1507 1508 1508 1508 1508 1508 1508 1507 1507 1507 1507 1506 1506 1505 1504 1504 1503 1502 1502 1501 1500 1499 1498 1497 1497 1496 1494
1520 1519 1515 1512 1510 1503 1495 1487 1487 1488 1490 1492 1494 1496 1497 1499 1500 1501 1502 1503 1504 1505 1506 1506 1506 1506 1506 1505 1505 1504 1504 1504 1503 1503 1502 1502 1501 1500 1499 1498 1498 1497 1496 1495 1494 1493 1492 1491 1490
1519 1515 1513 1510 1511 1510 1501 1492 1490 1491 1492 1492 1493 1495 1496 1497 1498 1499 1500 1502 1503 1503 1504 1504 1504 1504 1503 1503 1502 1501 1501 1500 1500 1499 1498 1498 1497 1496 1495 1494 1493 1492 1491 1490 1489 1488 1487 1486 1484